Location: *
(37.5724°S, 58.0067°E)
Time: 10:32:03
(UTC+00:00)

CZ-4C R/B - Pass Details

Date: 26 September 2020
Orbit: 626 x 1376 km, 63.4° (Epoch: 30 October)

Event Time Altitude Azimuth Distance (km) Brightness Sun altitude
Rises 14:24:54 0° 225° (SW) 3,321 6.2 -4.1°
Reaches altitude 10° 14:27:52 10° 238° (WSW) 2,272 5.7 -4.7°
Maximum altitude 14:31:53 24° 290° (WNW) 1,421 4.4 -5.5°
Drops below altitude 10° 14:35:32 10° 343° (NNW) 2,045 4.4 -6.2°
Sets 14:38:04 0° 358° (N) 2,911 5.0 -6.7°
